Vorticity
8 7 7 7 7 7 7 6 6 6 7 7 7 7 8 8 8 8 7 7 7 7 7 7 6 6 6 6 6 7 7 7 7 7 7 7 7 7 7 7 7 7 6 6 6 6 6 6 7 7 7 7 8 8 8 9 9 9 10 10 11 11 12 12 12 12 13 12 12 12 12 11 11 10 10 10 9 9 9 9 9 10 10 10 11 11
7 7 8 8 7 7 7 7 6 6 6 7 7 7 8 8 8 8 8 8 8 8 8 7 7 7 7 6 6 6 7 7 7 7 7 7 7 7 7 7 7 7 7 7 7 7 7 7 7 7 8 8 8 9 9 10 10 11 11 12 12 12 13 13 14 14 15 15 15 15 15 15 15 14 13 13 12 12 11 10 10 10 9 10 10 10
7 7 8 8 8 7 7 7 7 6 6 6 6 7 7 8 8 8 9 9 9 9 8 8 8 8 7 7 7 7 7 7 7 7 7 7 7 7 7 7 7 7 7 7 7 7 7 7 8 8 8 9 9 10 10 10 11 11 11 11 11 12 12 12 12 13 13 14 14 15 16 16 16 17 17 16 16 16 15 14 14 13 12 11 11 10
7 7 7 7 8 8 7 7 7 6 6 6 6 6 6 7 7 8 8 8 9 9 9 9 9 9 8 8 8 7 7 7 7 7 7 7 7 7 7 7 7 7 7 7 7 8 8 8 8 8 9 9 9 9 10 10 10 10 10 9 9 9 9 8 8 8 8 9 9 10 11 12 13 14 14 15 16 17 17 17 17 16 16 15 14 13
7 6 6 7 7 8 8 7 7 7 7 6 6 6 6 6 6 6 7 8 8 9 9 9 9 9 9 9 9 8 8 8 8 8 8 8 8 8 8 8 8 8 8 8 8 8 9 9 9 9 9 9 9 9 8 8 8 7 7 6 6 5 5 4 4 4 4 4 4 4 5 5 6 7 8 9 10 12 13 14 15 16 17 17 16 16
7 6 6 6 7 7 7 7 7 7 7 7 6 6 6 5 5 6 6 6 7 7 8 8 9 9 9 9 9 9 9 9 9 9 9 9 9 9 9 9 9 9 9 9 9 9 9 9 9 9 9 9 8 8 7 6 6 5 4 4 3 2 2 1 1 1 0 0 0 0 0 1 1 1 2 3 3 4 6 7 9 11 12 13 15 15
7 7 6 6 6 7 7 7 7 7 6 6 6 6 6 6 6 5 5 5 6 6 6 7 7 8 8 9 9 9 9 9 9 9 9 9 10 10 10 10 10 9 9 9 10 10 10 10 10 10 9 9 8 7 6 5 4 3 2 2 1 1 0 0 -0 -0 -1 -1 -1 -1 -1 -1 -1 -1 -1 -0 -0 0 1 2 3 4 5 7 9 10
7 7 7 6 6 7 7 7 7 7 6 6 6 6 6 6 6 6 5 5 5 5 5 6 6 7 7 8 8 9 9 9 9 9 9 9 9 10 10 10 10 10 10 10 10 10 10 10 10 9 9 8 7 6 5 4 3 2 1 1 0 -0 -0 -0 -0 -0 -0 -0 -0 -0 -0 0 0 0 0 0 0 0 0 0 0 0 1 2 3 4
7 7 7 7 6 6 7 7 7 7 6 6 6 6 6 6 6 6 6 6 6 5 5 5 6 6 6 6 7 8 8 8 9 9 9 9 9 9 9 9 10 10 10 10 10 10 10 10 9 9 8 7 6 5 3 2 1 1 0 -0 -0 -1 -1 -0 -0 -0 0 0 1 1 1 1 2 2 2 2 2 2 2 2 1 1 1 1 1 1
7 7 7 7 7 6 6 7 7 7 6 6 6 5 5 6 6 6 6 6 6 5 5 5 5 5 6 6 6 6 7 7 8 8 8 9 9 9 9 9 9 9 9 9 9 9 9 9 8 8 7 6 5 3 2 1 0 -0 -1 -1 -1 -1 -1 -0 -0 0 0 1 1 2 2 2 3 3 3 3 3 4 3 3 3 3 3 3 2 2
7 7 7 7 7 7 6 7 7 7 7 6 6 6 5 5 5 6 6 6 6 6 5 5 5 5 5 6 5 5 5 7 7 8 7 8 8 8 8 8 8 8 8 8 8 8 8 8 7 7 6 5 4 3 1 0 -0 -1 -1 -1 -1 -1 -1 -0 0 0 1 1 2 2 3 3 3 4 4 4 4 4 4 4 4 4 4 4 4 4
7 7 7 7 7 6 6 7 7 7 7 7 7 7 6 5 5 5 6 6 6 6 6 6 5 5 5 5 5 6 5 6 6 7 8 8 8 8 8 8 8 7 7 7 7 7 7 7 6 6 5 4 3 2 1 0 -0 -1 -1 -1 -1 -1 -0 0 1 1 1 2 2 3 3 3 4 4 4 4 5 5 5 5 5 5 5 5 5 5
7 7 7 7 7 6 6 6 6 6 6 6 6 7 7 6 6 5 6 6 6 6 6 6 7 6 5 5 5 5 6 6 6 6 7 7 8 8 8 8 8 8 8 7 7 6 6 7 6 6 5 4 3 2 2 1 1 0 -0 -0 -0 0 0 1 1 2 2 2 3 3 4 4 4 4 4 4 5 5 5 5 5 5 5 5 5 5
7 6 7 7 7 7 6 6 6 6 6 6 6 6 7 7 7 7 6 7 7 6 6 6 7 7 7 6 5 5 5 6 6 6 6 6 7 7 8 8 9 9 9 8 8 8 7 7 7 7 6 5 4 4 3 3 2 2 1 1 1 1 1 2 2 2 3 3 3 3 4 4 4 4 4 4 4 4 4 4 5 5 5 5 5 5
6 7 7 7 7 7 7 6 6 6 7 7 7 7 7 8 8 7 7 7 7 7 6 6 6 7 7 7 6 6 6 6 7 7 7 7 6 6 6 7 8 9 9 9 9 9 9 8 8 8 8 7 7 6 6 5 5 4 4 4 3 3 3 3 3 3 3 4 4 4 4 4 4 4 4 4 4 4 4 4 4 4 4 4 5 5
6 6 6 7 7 7 7 6 6 7 7 8 8 8 8 8 8 7 6 7 7 7 6 6 6 7 7 7 6 6 7 7 7 7 7 8 8 7 6 7 8 9 9 9 9 10 10 9 9 9 10 9 9 8 8 8 7 7 7 6 6 6 6 5 5 5 5 5 4 4 4 4 4 4 4 4 4 4 4 4 4 4 4 4 4 4
5 5 6 6 7 7 7 7 7 7 8 8 8 7 7 6 6 6 6 6 6 7 7 6 7 8 9 8 7 6 6 8 8 8 7 9 9 8 7 7 8 8 9 8 8 9 9 9 9 9 10 10 10 10 9 9 9 9 9 8 8 8 8 7 7 6 6 6 5 5 5 4 4 4 4 4 4 4 4 4 4 4 4 4 4 4
5 5 5 6 7 7 8 8 8 8 8 8 7 7 7 6 6 6 6 6 7 7 8 8 8 8 9 10 10 8 6 7 8 9 8 9 9 9 8 7 7 8 8 8 8 7 7 7 8 8 9 9 9 9 9 9 9 9 9 9 9 8 8 8 7 7 7 6 6 6 5 5 5 5 5 5 4 4 4 4 4 4 4 4 4 4
5 5 5 6 7 7 8 8 7 7 7 7 6 6 8 8 8 8 8 8 8 8 9 9 10 10 9 11 11 9 7 8 8 9 9 10 10 9 8 8 8 8 8 8 8 7 7 7 6 6 7 7 7 7 8 8 8 8 8 8 8 8 7 7 7 7 6 6 6 6 5 5 5 5 5 5 5 5 5 5 5 5 5 5 5 5
6 6 6 6 7 8 8 8 8 7 6 6 7 8 9 9 10 10 10 10 10 10 9 10 10 11 10 11 11 10 8 9 10 10 9 10 11 10 9 9 9 9 9 9 8 7 7 7 7 6 6 6 6 6 6 6 6 6 6 6 6 6 6 6 6 6 6 6 5 5 5 5 5 5 5 5 5 5 5 5 5 5 5 5 5 5
8 8 7 6 7 8 9 9 9 8 8 8 9 10 11 11 11 12 11 11 11 11 10 11 11 11 11 11 11 10 9 10 11 10 10 11 11 11 9 9 9 9 9 10 9 8 8 8 8 7 6 6 6 5 5 5 5 5 5 5 5 5 5 5 5 5 5 5 5 5 5 5 5 5 5 5 5 5 5 5 5 5 5 5 5 5
9 10 10 9 9 9 10 10 10 10 9 10 10 10 10 11 11 11 11 11 11 11 11 11 11 10 9 10 10 10 10 10 10 9 9 10 11 11 9 9 9 9 9 10 9 9 8 8 8 8 7 7 6 6 6 5 5 5 5 5 5 5 5 5 5 5 5 5 5 5 5 5 5 5 5 5 5 5 5 5 5 5 5 5 5 5
10 11 12 12 12 12 12 12 12 12 11 11 11 10 9 9 9 10 10 11 11 11 11 10 10 10 9 9 10 10 10 10 10 10 9 9 10 10 9 9 8 8 8 9 9 9 8 8 8 8 8 7 7 7 7 6 6 5 5 5 5 5 5 5 5 5 4 4 4 4 4 4 5 5 5 5 5 5 5 6 6 6 6 6 6 6
13 13 14 14 14 14 14 14 13 13 13 13 12 11 11 10 10 11 11 11 11 11 11 10 11 11 11 10 10 10 9 8 9 10 9 9 9 10 9 8 8 9 9 8 8 9 10 9 8 8 8 8 8 8 8 7 7 6 6 6 6 5 5 5 5 5 5 5 5 4 4 4 4 5 5 5 5 6 6 6 6 6 6 6 6 6
14 15 15 15 15 15 15 14 14 13 13 13 13 12 11 12 12 12 12 12 12 12 12 11 11 11 10 10 10 9 7 7 7 8 8 9 10 10 9 8 9 9 9 8 8 9 10 10 9 9 8 8 8 8 9 9 8 7 7 7 6 6 6 6 5 5 5 5 5 5 5 5 5 5 5 5 6 6 6 7 7 7 7 7 7 7
15 15 14 14 15 15 15 14 14 14 13 13 12 12 11 10 10 10 11 11 11 11 11 11 10 10 10 10 10 9 8 7 7 8 8 9 11 11 10 9 9 9 10 9 9 10 11 11 10 9 9 8 8 8 8 8 8 8 7 7 7 6 6 6 6 6 6 6 6 6 6 6 6 6 6 6 6 7 7 7 7 7 8 8 8 8
13 13 13 13 13 13 13 14 13 13 13 13 13 12 11 10 10 10 10 9 8 8 8 8 9 9 10 10 10 10 10 9 8 8 8 9 10 11 11 10 10 10 9 9 8 9 10 11 10 9 9 8 8 8 8 8 8 8 8 7 7 7 7 7 7 7 7 7 7 7 7 7 7 7 7 7 7 7 7 8 8 8 8 8 8 8
12 11 11 11 12 12 12 12 13 13 13 13 12 12 11 10 9 9 9 7 7 7 7 7 8 9 9 9 10 11 11 9 8 7 7 8 10 11 11 11 11 10 9 9 8 8 9 10 10 9 10 9 9 9 9 8 8 9 9 9 9 9 8 8 8 8 8 8 8 8 8 8 8 8 8 8 8 8 8 8 8 8 9 9 9 9
11 11 11 11 11 11 11 11 11 12 12 11 11 11 10 9 9 9 9 8 7 8 8 8 8 8 8 8 9 10 10 10 8 7 7 8 9 10 10 11 12 11 10 10 10 9 9 10 10 11 11 11 10 10 11 10 10 10 10 10 10 10 10 9 9 9 9 9 9 9 9 9 9 9 9 9 9 9 9 9 9 9 9 9 9 9
12 11 11 11 11 11 11 10 10 10 10 10 10 9 9 9 9 10 10 9 8 9 9 9 9 8 8 8 9 10 11 11 10 8 8 9 10 10 10 11 11 11 10 11 11 11 10 11 11 11 11 11 11 11 11 11 11 11 10 11 11 10 10 10 10 9 9 9 9 9 9 9 9 9 9 9 10 10 10 10 11 11 10 10 10 10
11 11 11 11 10 10 10 9 9 9 9 9 9 9 9 9 9 10 10 9 9 9 10 9 9 8 8 8 9 10 11 11 10 9 9 10 10 10 9 9 10 11 11 10 10 10 11 11 10 10 11 11 11 10 10 10 11 10 10 10 11 11 10 10 10 10 10 10 10 10 9 9 10 10 10 10 11 11 11 11 11 11 11 11 11 11
11 11 11 10 10 9 9 8 8 8 8 8 8 8 8 8 8 9 9 8 8 9 9 9 9 9 9 9 9 10 10 11 9 9 10 12 12 11 9 9 10 11 11 10 10 10 9 9 9 9 10 11 11 10 10 10 10 10 10 10 10 11 11 11 11 11 11 11 11 11 11 11 11 11 11 11 11 12 12 12 12 11 11 11 11 11
11 10 10 10 9 8 8 8 7 7 7 7 7 7 7 7 7 7 8 8 8 8 8 8 8 9 9 9 10 11 11 10 9 9 10 12 12 11 9 10 10 10 10 11 11 11 10 9 9 9 10 10 11 11 11 10 10 11 10 11 11 11 11 11 11 11 12 12 12 12 12 12 12 12 12 12 12 12 12 12 12 11 11 11 11 11
9 9 8 8 8 8 7 7 7 7 7 7 7 7 7 7 7 7 7 7 7 8 8 8 7 7 7 8 9 10 11 10 9 9 10 11 11 10 10 10 10 9 9 10 10 11 12 10 9 9 9 10 11 12 11 11 11 12 12 12 11 11 11 11 11 12 12 12 12 12 12 12 12 12 12 12 12 12 12 12 12 11 11 11 11 11
7 7 7 6 6 7 6 6 6 6 6 6 6 6 7 7 7 7 7 7 7 7 8 8 8 7 6 6 7 8 9 9 9 9 9 10 10 10 10 10 9 9 10 9 9 9 10 10 10 9 9 9 10 11 11 11 12 12 12 12 12 11 11 10 11 11 11 12 12 12 12 12 12 12 12 12 12 12 11 11 11 11 11 11 11 11
6 6 5 5 5 6 6 5 5 5 5 5 5 6 6 6 7 7 7 7 7 7 7 8 9 9 9 8 7 7 7 7 8 9 8 9 10 9 9 8 8 9 10 8 8 9 9 10 10 10 9 9 9 9 10 10 10 10 10 10 11 11 11 10 10 10 11 11 11 11 11 12 11 11 12 12 12 11 11 11 11 11 11 11 11 11
5 5 4 4 4 4 5 4 4 5 5 4 5 5 5 6 6 7 7 7 7 7 8 8 9 9 10 10 10 9 8 8 8 8 8 10 10 10 9 8 8 9 8 7 8 9 9 9 10 10 11 10 9 8 8 7 8 9 9 10 10 10 9 10 10 10 10 10 10 10 10 10 10 11 11 11 11 11 11 11 11 11 11 11 11 11
4 4 4 4 4 4 4 4 4 4 4 4 4 4 5 5 6 6 7 7 7 8 8 8 9 9 9 9 10 9 9 8 7 7 8 8 9 9 9 8 8 8 7 8 8 8 7 8 8 9 10 11 10 9 7 6 7 8 9 9 9 9 8 9 10 10 10 10 10 10 10 10 10 10 11 11 11 11 11 11 11 12 11 11 11 11
4 4 4 4 4 4 4 4 4 4 4 5 5 5 5 6 6 7 7 7 7 8 8 8 8 8 8 8 8 8 7 7 6 5 5 6 6 7 8 7 7 6 6 7 7 7 6 6 7 7 7 8 8 9 8 8 8 7 7 8 9 9 8 9 10 9 9 9 9 9 9 9 9 9 9 10 10 10 10 10 10 10 10 10 10 11
4 4 4 4 4 4 5 4 4 4 5 5 5 5 6 6 6 7 7 7 7 7 7 7 7 7 6 7 6 6 6 6 5 5 5 4 4 5 6 6 5 5 4 4 5 5 5 6 6 6 6 5 5 6 6 7 7 7 7 7 7 8 9 10 10 9 9 9 10 9 8 8 9 9 9 9 10 10 9 9 10 10 10 9 9 9
3 3 3 4 4 4 5 5 5 5 5 4 4 5 5 5 5 5 5 5 5 5 5 5 5 5 5 5 5 5 5 5 5 4 4 4 4 4 4 4 4 4 4 4 4 4 4 4 4 4 5 5 5 5 5 5 6 6 7 7 6 6 8 9 8 8 9 10 10 9 8 8 8 8 9 9 10 10 9 9 9 10 10 10 10 10
2 2 2 2 3 3 3 4 4 4 4 4 4 4 4 4 4 3 3 3 3 3 3 3 2 2 3 3 3 3 3 3 3 3 3 3 3 2 2 3 3 3 3 3 3 4 4 3 3 3 3 3 3 4 4 5 6 6 7 6 6 7 9 8 8 8 9 8 8 8 8 8 8 8 8 9 9 9 9 10 9 9 10 10 11 11
1 1 1 1 1 2 2 2 2 2 2 3 4 4 3 3 3 3 2 2 2 2 2 2 2 2 2 2 2 2 3 3 3 3 3 3 3 2 2 3 3 3 3 3 3 4 4 4 4 4 3 3 3 3 3 4 5 6 6 5 5 6 6 6 7 8 9 6 6 7 8 7 8 8 9 9 9 8 9 9 10 10 10 9 9 10
2 2 1 1 1 1 1 1 1 1 2 2 2 2 2 2 2 3 3 3 3 2 2 2 2 2 3 3 3 3 3 4 4 4 4 4 4 4 4 4 4 4 5 5 4 4 4 5 5 5 4 4 4 4 4 5 5 5 5 5 6 6 4 2 4 6 6 5 6 7 7 7 7 7 8 9 9 10 10 9 10 10 10 10 10 10
4 3 3 2 2 2 2 2 2 2 2 2 2 2 2 2 3 3 3 3 3 3 3 3 3 4 5 4 5 4 4 4 5 6 7 7 7 6 6 6 6 6 7 8 7 6 5 5 6 6 6 7 6 6 6 6 6 6 5 5 6 6 6 6 6 6 4 5 6 6 6 5 6 6 7 8 9 10 9 9 9 9 9 10 10 10
7 6 6 6 5 5 5 5 4 4 5 5 5 5 4 4 5 5 5 5 5 5 5 5 5 6 6 6 6 7 6 6 7 8 9 10 10 10 10 9 9 9 9 10 10 10 10 8 7 6 7 8 9 10 9 8 7 6 6 6 6 6 6 7 7 7 5 5 5 5 4 5 5 6 6 8 8 9 9 9 8 8 9 9 9 10
10 10 10 10 10 10 9 9 9 9 9 9 9 9 8 8 8 9 9 9 9 8 8 9 10 10 9 9 9 9 8 8 9 10 10 10 11 11 12 12 12 12 12 11 12 12 13 12 11 10 9 9 10 11 12 11 10 9 7 7 7 7 7 7 7 7 6 6 5 4 4 5 5 6 7 8 9 9 9 10 10 10 9 9 9 9
14 14 13 13 13 13 13 13 14 14 14 14 14 14 14 13 13 13 13 14 14 13 13 13 14 14 14 14 13 13 12 12 11 11 11 12 12 12 13 13 13 14 14 14 14 14 14 14 14 14 13 12 11 11 11 12 12 11 10 9 9 9 9 9 8 8 7 7 6 6 6 6 6 6 7 8 9 9 9 11 11 11 10 10 10 9
16 16 16 16 16 17 16 16 17 18 18 18 18 19 19 19 19 19 19 18 19 19 19 19 19 19 19 19 18 18 18 18 17 16 16 15 15 14 15 15 14 14 15 15 15 15 15 16 16 16 15 15 14 13 12 13 13 12 12 12 11 11 10 10 10 9 8 8 8 8 8 8 8 8 9 9 9 9 10 11 11 11 11 10 10 9
20 19 19 20 20 20 20 20 21 21 22 22 22 23 23 24 25 25 25 25 25 25 25 25 25 25 25 25 24 24 25 24 23 23 22 21 20 19 18 17 16 16 16 16 15 15 15 16 17 17 18 18 16 15 13 13 13 13 14 13 13 12 12 11 10 10 10 9 9 9 9 10 10 10 11 11 11 11 12 12 12 12 11 10 10 9
23 24 24 25 25 25 25 25 25 25 25 25 25 26 26 27 28 29 29 30 30 30 30 30 31 31 31 30 30 30 30 30 29 29 28 27 26 25 24 22 21 20 19 18 18 17 17 16 16 16 18 19 18 16 15 14 13 13 14 13 13 13 13 12 11 11 11 10 10 10 11 11 11 11 12 12 12 12 13 13 13 12 11 10 10 9
Height
5654 5653 5654 5654 5655 5655 5655 5656 5657 5657 5657 5657 5658 5658 5659 5659 5660 5660 5661 5661 5661 5662 5662 5662 5662 5663 5663 5663 5663 5664 5664 5664 5664 5665 5665 5665 5665 5666 5666 5666 5666 5666 5666 5666 5667 5667 5667 5667 5667 5667 5667 5667 5667 5667 5667 5667 5667 5667 5667 5667 5667 5667 5667 5667 5667 5667 5667 5667 5667 5667 5667 5667 5667 5667 5667 5666 5666 5666 5666 5666 5666 5666 5666 5666 5666 5666
5650 5650 5650 5650 5651 5651 5651 5652 5653 5653 5653 5653 5654 5655 5655 5656 5656 5656 5657 5657 5658 5658 5658 5659 5659 5659 5659 5660 5660 5660 5660 5661 5661 5661 5661 5661 5662 5662 5662 5662 5663 5663 5663 5663 5663 5663 5663 5664 5664 5664 5664 5664 5664 5664 5664 5664 5664 5664 5664 5664 5664 5664 5664 5664 5664 5664 5664 5664 5664 5663 5663 5663 5663 5663 5663 5663 5663 5663 5663 5663 5663 5663 5663 5663 5663 5662
5647 5646 5646 5646 5646 5647 5647 5648 5649 5649 5649 5649 5650 5650 5651 5651 5652 5652 5653 5653 5654 5654 5654 5655 5655 5655 5656 5656 5656 5656 5657 5657 5657 5657 5658 5658 5658 5658 5659 5659 5659 5659 5660 5660 5660 5660 5660 5660 5660 5660 5661 5661 5661 5661 5661 5661 5661 5661 5661 5661 5661 5661 5661 5661 5661 5661 5661 5661 5660 5660 5660 5660 5660 5660 5660 5659 5659 5659 5659 5659 5659 5659 5659 5659 5659 5659
5643 5643 5642 5642 5642 5642 5643 5643 5644 5645 5645 5645 5646 5646 5647 5647 5647 5648 5649 5649 5650 5650 5651 5651 5651 5651 5651 5652 5652 5653 5653 5653 5653 5654 5654 5654 5655 5655 5655 5655 5656 5656 5656 5656 5656 5656 5656 5656 5657 5657 5657 5657 5657 5657 5657 5658 5658 5658 5658 5658 5658 5658 5658 5658 5658 5658 5657 5657 5657 5657 5657 5657 5657 5657 5656 5656 5656 5656 5656 5656 5656 5656 5656 5656 5655 5655
5638 5639 5639 5639 5639 5638 5638 5639 5640 5641 5641 5641 5641 5642 5642 5643 5643 5644 5644 5645 5646 5646 5646 5647 5647 5647 5647 5648 5648 5649 5649 5649 5650 5650 5650 5651 5651 5651 5651 5651 5652 5652 5652 5652 5652 5652 5653 5653 5653 5653 5653 5653 5654 5654 5654 5654 5654 5654 5655 5655 5655 5655 5655 5655 5655 5655 5655 5655 5654 5654 5654 5654 5654 5654 5654 5654 5653 5653 5653 5652 5652 5652 5652 5652 5651 5651
5634 5634 5635 5635 5635 5634 5634 5635 5636 5636 5636 5637 5637 5638 5638 5639 5639 5640 5640 5641 5641 5641 5642 5642 5643 5643 5643 5644 5644 5645 5645 5646 5646 5646 5646 5647 5647 5647 5647 5648 5648 5648 5648 5648 5649 5649 5649 5649 5649 5649 5650 5650 5650 5650 5650 5651 5651 5651 5651 5651 5651 5651 5651 5651 5651 5651 5651 5651 5651 5651 5651 5651 5651 5651 5651 5651 5651 5651 5650 5650 5650 5649 5649 5648 5648 5648
5629 5630 5630 5631 5630 5630 5630 5631 5631 5632 5632 5632 5633 5633 5634 5635 5635 5636 5636 5636 5636 5637 5637 5638 5638 5639 5639 5640 5640 5641 5641 5641 5642 5642 5642 5643 5643 5643 5644 5644 5644 5644 5644 5645 5645 5645 5645 5645 5645 5646 5646 5646 5646 5646 5646 5646 5647 5647 5647 5647 5647 5647 5647 5647 5647 5647 5647 5648 5648 5648 5648 5648 5648 5648 5648 5648 5648 5648 5648 5647 5647 5647 5646 5646 5646 5645
5624 5625 5626 5626 5626 5626 5626 5626 5627 5627 5628 5628 5628 5629 5630 5630 5631 5631 5631 5631 5632 5633 5633 5633 5634 5635 5635 5636 5636 5636 5637 5637 5638 5638 5638 5639 5639 5639 5640 5640 5640 5640 5640 5641 5641 5641 5641 5641 5641 5641 5642 5642 5642 5642 5642 5642 5643 5643 5643 5643 5643 5643 5643 5643 5643 5644 5644 5644 5644 5644 5644 5644 5644 5644 5644 5644 5644 5644 5644 5644 5644 5644 5644 5643 5643 5642
5619 5620 5621 5622 5622 5622 5621 5622 5622 5623 5624 5624 5624 5625 5626 5626 5626 5626 5626 5627 5627 5628 5628 5629 5629 5630 5631 5631 5632 5632 5633 5633 5634 5634 5634 5635 5635 5635 5636 5636 5636 5636 5636 5636 5636 5637 5637 5637 5637 5637 5638 5638 5638 5638 5638 5638 5639 5639 5639 5639 5639 5639 5639 5639 5639 5639 5640 5640 5640 5640 5640 5640 5640 5640 5640 5640 5640 5641 5641 5641 5641 5641 5641 5640 5640 5640
5615 5615 5616 5617 5617 5617 5617 5617 5617 5619 5620 5620 5620 5620 5621 5621 5621 5621 5622 5622 5623 5623 5624 5624 5625 5625 5626 5627 5628 5628 5628 5629 5629 5630 5630 5631 5631 5631 5631 5632 5632 5632 5632 5632 5632 5633 5633 5633 5633 5633 5633 5634 5634 5634 5634 5634 5635 5635 5635 5635 5635 5635 5635 5635 5635 5635 5635 5636 5636 5636 5636 5636 5636 5636 5636 5636 5636 5636 5636 5636 5637 5637 5637 5637 5636 5636
5610 5610 5611 5611 5612 5613 5613 5612 5613 5614 5615 5615 5615 5616 5616 5617 5617 5617 5617 5617 5618 5619 5619 5620 5620 5621 5621 5622 5623 5624 5624 5625 5625 5626 5626 5626 5627 5627 5627 5627 5628 5628 5628 5628 5628 5628 5629 5629 5629 5629 5629 5630 5630 5630 5630 5630 5630 5631 5631 5631 5631 5631 5631 5631 5631 5631 5631 5631 5631 5631 5631 5631 5632 5632 5632 5632 5632 5632 5632 5632 5632 5633 5633 5633 5633 5632
5604 5605 5606 5606 5607 5607 5608 5608 5608 5609 5610 5611 5611 5611 5611 5612 5612 5612 5612 5612 5613 5614 5615 5615 5615 5616 5617 5617 5618 5619 5620 5620 5621 5621 5621 5622 5622 5623 5623 5623 5624 5624 5624 5624 5624 5624 5624 5624 5624 5625 5625 5625 5625 5626 5626 5626 5626 5626 5626 5626 5626 5626 5626 5626 5627 5627 5627 5627 5627 5627 5627 5627 5627 5627 5628 5628 5628 5628 5628 5628 5628 5628 5628 5628 5628 5628
5599 5600 5601 5601 5601 5602 5602 5603 5603 5604 5606 5606 5606 5606 5606 5607 5608 5608 5608 5607 5608 5609 5610 5610 5610 5611 5612 5612 5613 5614 5615 5616 5616 5616 5617 5617 5618 5618 5619 5619 5619 5619 5620 5620 5620 5620 5620 5620 5620 5620 5621 5621 5621 5621 5621 5621 5621 5622 5622 5622 5622 5622 5622 5622 5622 5622 5622 5623 5623 5623 5623 5623 5623 5623 5623 5623 5624 5624 5624 5624 5624 5624 5624 5624 5624 5624
5593 5594 5595 5596 5596 5596 5597 5598 5598 5599 5600 5601 5602 5602 5602 5602 5603 5603 5603 5603 5603 5604 5605 5606 5606 5606 5606 5608 5609 5609 5610 5611 5611 5611 5612 5613 5613 5614 5614 5615 5615 5615 5615 5616 5615 5615 5616 5616 5616 5616 5616 5616 5616 5616 5616 5616 5617 5617 5617 5617 5617 5617 5618 5618 5618 5618 5618 5618 5618 5619 5619 5619 5619 5619 5619 5619 5619 5619 5620 5620 5620 5620 5620 5620 5620 5620
5588 5589 5590 5590 5591 5591 5591 5593 5594 5595 5595 5596 5597 5597 5597 5597 5597 5598 5598 5598 5598 5599 5601 5601 5601 5601 5602 5603 5604 5604 5605 5606 5606 5607 5607 5608 5608 5609 5610 5610 5610 5610 5611 5611 5611 5611 5611 5611 5611 5611 5611 5611 5611 5611 5612 5612 5612 5612 5612 5612 5613 5613 5613 5613 5613 5613 5614 5614 5614 5614 5614 5614 5615 5615 5615 5615 5615 5615 5615 5615 5615 5616 5616 5616 5616 5616
5582 5584 5584 5585 5585 5586 5586 5588 5589 5590 5591 5591 5592 5592 5591 5591 5592 5592 5593 5593 5593 5594 5596 5596 5596 5596 5597 5598 5599 5600 5600 5600 5601 5602 5603 5603 5603 5604 5605 5605 5605 5605 5606 5606 5606 5606 5606 5607 5606 5606 5606 5606 5606 5607 5607 5607 5607 5607 5607 5608 5608 5608 5608 5608 5608 5609 5609 5609 5609 5609 5610 5610 5610 5610 5610 5611 5611 5611 5611 5611 5611 5611 5611 5611 5611 5611
5577 5578 5579 5579 5580 5580 5581 5583 5585 5586 5586 5586 5586 5586 5586 5586 5586 5587 5588 5588 5589 5589 5590 5591 5591 5591 5592 5593 5594 5595 5595 5595 5596 5596 5598 5598 5598 5598 5600 5601 5600 5600 5601 5601 5601 5601 5601 5602 5602 5601 5601 5602 5602 5602 5602 5602 5602 5602 5603 5603 5603 5603 5603 5603 5603 5604 5604 5604 5604 5605 5605 5605 5605 5606 5606 5606 5606 5606 5606 5606 5606 5607 5607 5607 5607 5607
5572 5573 5573 5574 5575 5575 5576 5578 5580 5580 5580 5580 5580 5580 5580 5580 5581 5582 5583 5583 5584 5584 5585 5586 5586 5586 5587 5588 5589 5589 5590 5591 5591 5591 5592 5593 5592 5593 5594 5595 5595 5595 5596 5596 5596 5596 5597 5597 5597 5596 5597 5597 5597 5597 5597 5597 5597 5597 5598 5598 5598 5598 5598 5598 5598 5599 5599 5599 5599 5600 5600 5600 5601 5601 5601 5601 5601 5601 5601 5602 5602 5602 5602 5602 5603 5603
5566 5567 5568 5569 5569 5570 5571 5573 5574 5574 5574 5574 5574 5574 5575 5575 5576 5577 5577 5578 5579 5579 5580 5581 5581 5581 5582 5583 5583 5584 5585 5586 5586 5586 5587 5587 5587 5587 5589 5590 5590 5590 5590 5591 5591 5591 5592 5592 5592 5592 5592 5592 5592 5592 5592 5592 5593 5593 5593 5593 5593 5593 5593 5593 5594 5594 5594 5594 5594 5595 5595 5595 5595 5596 5596 5596 5596 5596 5597 5597 5597 5597 5598 5598 5598 5598
5560 5562 5563 5564 5564 5564 5566 5567 5568 5568 5569 5569 5569 5570 5570 5570 5571 5571 5572 5573 5573 5574 5575 5576 5576 5576 5577 5578 5578 5579 5580 5581 5581 5581 5581 5581 5581 5581 5583 5585 5585 5584 5584 5585 5585 5586 5586 5586 5586 5586 5587 5587 5587 5587 5587 5588 5588 5588 5588 5588 5588 5588 5588 5588 5589 5589 5589 5589 5589 5590 5590 5590 5590 5591 5591 5591 5591 5591 5591 5592 5592 5592 5593 5593 5593 5593
5555 5556 5557 5558 5559 5559 5560 5561 5561 5562 5563 5564 5564 5565 5565 5565 5565 5566 5567 5567 5568 5569 5569 5570 5570 5570 5571 5572 5573 5573 5574 5576 5576 5576 5576 5576 5576 5576 5577 5579 5579 5579 5579 5579 5579 5580 5581 5581 5581 5581 5581 5582 5582 5582 5582 5582 5583 5583 5583 5583 5583 5583 5583 5583 5583 5584 5584 5584 5584 5585 5585 5585 5585 5586 5586 5586 5586 5586 5586 5587 5587 5587 5587 5588 5588 5588
5549 5550 5550 5552 5553 5554 5554 5554 5556 5557 5558 5558 5559 5559 5559 5559 5560 5561 5561 5562 5563 5564 5564 5564 5565 5565 5566 5567 5567 5567 5568 5570 5571 5571 5570 5571 5571 5570 5571 5573 5574 5574 5574 5573 5573 5574 5575 5575 5575 5575 5576 5576 5577 5577 5577 5577 5577 5578 5578 5578 5578 5578 5578 5578 5578 5578 5579 5579 5579 5579 5580 5580 5580 5580 5581 5581 5581 5581 5581 5581 5582 5582 5582 5582 5583 5583
5543 5544 5544 5546 5547 5548 5548 5548 5550 5551 5552 5553 5553 5553 5553 5554 5555 5555 5556 5556 5558 5558 5558 5559 5559 5559 5560 5561 5561 5561 5563 5565 5565 5565 5565 5566 5565 5564 5565 5568 5569 5569 5568 5568 5568 5569 5569 5569 5569 5570 5571 5571 5571 5571 5572 5572 5572 5572 5572 5572 5573 5573 5573 5573 5573 5573 5573 5574 5574 5574 5575 5575 5575 5575 5575 5576 5576 5576 5576 5576 5576 5577 5577 5577 5577 5577
5537 5538 5538 5540 5541 5541 5542 5543 5544 5545 5546 5547 5547 5547 5548 5549 5549 5550 5550 5551 5552 5552 5553 5553 5554 5554 5554 5555 5555 5556 5557 5558 5559 5560 5560 5561 5560 5559 5560 5562 5564 5564 5563 5562 5562 5563 5563 5563 5563 5564 5565 5566 5566 5566 5566 5566 5566 5567 5567 5567 5567 5567 5567 5568 5568 5568 5568 5568 5569 5569 5569 5570 5570 5570 5570 5570 5571 5571 5571 5571 5571 5571 5572 5572 5572 5572
5531 5532 5533 5534 5535 5536 5536 5537 5538 5539 5540 5541 5541 5542 5542 5543 5544 5544 5544 5545 5546 5547 5547 5548 5548 5548 5548 5549 5550 5551 5551 5552 5554 5555 5555 5555 5554 5554 5555 5557 5558 5558 5557 5557 5557 5558 5558 5558 5558 5559 5560 5560 5560 5560 5560 5561 5561 5561 5561 5561 5562 5562 5562 5562 5562 5562 5563 5563 5563 5564 5564 5564 5565 5565 5565 5565 5565 5566 5566 5566 5566 5566 5566 5566 5567 5567
5526 5526 5527 5528 5529 5530 5531 5531 5532 5533 5534 5535 5536 5536 5537 5537 5538 5539 5539 5540 5541 5541 5542 5543 5543 5542 5542 5543 5545 5545 5545 5547 5548 5549 5549 5549 5549 5549 5550 5551 5552 5553 5552 5552 5552 5553 5553 5552 5552 5553 5554 5555 5555 5554 5555 5555 5555 5555 5556 5556 5556 5556 5556 5556 5557 5557 5557 5557 5558 5558 5558 5559 5559 5559 5559 5560 5560 5560 5560 5561 5561 5561 5561 5561 5561 5561
5520 5521 5521 5522 5523 5524 5525 5526 5526 5527 5528 5529 5530 5530 5531 5532 5533 5533 5534 5534 5535 5536 5537 5537 5537 5536 5537 5538 5539 5539 5539 5541 5543 5543 5543 5543 5543 5544 5543 5544 5546 5547 5547 5547 5547 5547 5547 5547 5547 5548 5549 5549 5549 5549 5549 5549 5549 5549 5550 5550 5550 5551 5551 5551 5551 5551 5551 5552 5552 5552 5553 5553 5553 5553 5554 5554 5554 5555 5555 5555 5555 5556 5556 5556 5556 5556
5515 5515 5516 5517 5517 5518 5519 5520 5521 5521 5522 5523 5524 5525 5525 5526 5527 5528 5527 5527 5529 5531 5532 5531 5531 5531 5532 5533 5532 5532 5533 5535 5536 5537 5537 5538 5538 5538 5536 5537 5540 5541 5541 5541 5541 5542 5542 5542 5542 5542 5543 5544 5544 5543 5543 5543 5544 5544 5544 5544 5545 5545 5545 5545 5545 5546 5546 5546 5546 5547 5547 5547 5547 5548 5548 5548 5548 5549 5549 5549 5549 5550 5550 5550 5550 5550
5509 5510 5511 5511 5512 5513 5514 5514 5515 5516 5516 5517 5518 5519 5519 5521 5522 5522 5521 5521 5524 5526 5526 5524 5525 5526 5527 5527 5526 5526 5527 5529 5529 5530 5531 5533 5533 5531 5530 5532 5534 5535 5535 5536 5536 5537 5537 5537 5536 5537 5538 5538 5538 5538 5538 5538 5538 5539 5539 5539 5539 5539 5539 5539 5540 5540 5540 5540 5541 5541 5541 5541 5542 5542 5542 5542 5542 5543 5543 5543 5543 5544 5544 5544 5544 5544
5503 5504 5505 5506 5506 5507 5508 5509 5509 5510 5511 5511 5512 5513 5514 5515 5516 5516 5515 5516 5518 5520 5519 5518 5519 5520 5521 5521 5521 5521 5521 5521 5522 5524 5527 5528 5527 5525 5524 5527 5528 5528 5528 5529 5531 5532 5532 5531 5531 5532 5533 5533 5533 5533 5533 5532 5533 5533 5534 5534 5533 5534 5534 5534 5534 5534 5534 5535 5535 5535 5536 5536 5536 5536 5536 5536 5537 5537 5537 5537 5537 5538 5538 5538 5538 5538
5497 5498 5500 5500 5501 5501 5503 5503 5504 5504 5505 5506 5506 5507 5508 5509 5510 5510 5510 5511 5512 5513 5513 5512 5513 5514 5515 5516 5516 5516 5515 5515 5516 5519 5522 5522 5520 5518 5519 5522 5522 5521 5521 5524 5526 5526 5525 5526 5526 5527 5528 5527 5527 5527 5527 5527 5527 5528 5528 5528 5528 5528 5528 5528 5528 5528 5529 5529 5529 5530 5530 5530 5530 5531 5531 5531 5531 5531 5531 5531 5531 5531 5532 5532 5532 5532
5492 5493 5494 5494 5495 5496 5497 5497 5498 5498 5499 5500 5500 5501 5501 5502 5503 5504 5504 5505 5506 5506 5507 5507 5508 5508 5509 5510 5510 5510 5509 5509 5511 5514 5516 5516 5514 5512 5514 5516 5516 5515 5515 5518 5519 5519 5519 5520 5522 5523 5523 5522 5521 5521 5521 5521 5522 5522 5523 5523 5523 5522 5522 5522 5523 5523 5523 5523 5524 5524 5524 5525 5525 5525 5525 5525 5526 5526 5526 5526 5526 5526 5526 5526 5526 5526
5486 5487 5488 5488 5489 5490 5491 5491 5492 5493 5493 5494 5494 5495 5496 5496 5497 5498 5498 5499 5499 5500 5501 5501 5502 5502 5503 5504 5504 5504 5503 5504 5505 5507 5509 5509 5508 5507 5508 5510 5510 5509 5509 5511 5513 5513 5513 5514 5516 5517 5518 5517 5516 5516 5515 5516 5516 5516 5517 5517 5517 5517 5516 5517 5518 5518 5518 5518 5518 5518 5519 5519 5519 5519 5520 5520 5520 5520 5520 5520 5520 5520 5520 5520 5520 5520
5481 5481 5482 5483 5483 5484 5485 5486 5486 5487 5487 5488 5488 5489 5489 5490 5491 5491 5492 5492 5493 5494 5495 5495 5496 5496 5497 5497 5498 5498 5498 5498 5499 5500 5502 5503 5502 5501 5501 5503 5504 5504 5504 5505 5506 5507 5507 5508 5510 5511 5512 5512 5512 5511 5510 5510 5510 5511 5511 5512 5512 5512 5511 5511 5512 5513 5513 5512 5512 5513 5513 5513 5513 5514 5514 5514 5514 5515 5515 5515 5515 5515 5515 5515 5515 5515
5475 5476 5476 5477 5478 5478 5479 5479 5480 5481 5481 5482 5482 5483 5483 5484 5485 5485 5486 5486 5487 5487 5488 5489 5489 5490 5491 5491 5492 5492 5492 5492 5492 5494 5496 5497 5496 5496 5496 5497 5498 5498 5498 5499 5500 5500 5501 5502 5503 5505 5506 5506 5506 5506 5505 5505 5505 5505 5506 5506 5506 5506 5506 5506 5507 5507 5507 5507 5507 5507 5507 5507 5508 5508 5508 5508 5509 5509 5509 5509 5509 5509 5509 5509 5509 5509
5469 5470 5470 5471 5472 5472 5473 5473 5474 5475 5476 5476 5476 5477 5477 5478 5479 5479 5480 5480 5481 5481 5482 5482 5483 5484 5485 5486 5486 5486 5486 5486 5486 5487 5489 5490 5490 5490 5491 5491 5491 5491 5492 5493 5493 5494 5495 5496 5497 5498 5499 5501 5501 5501 5500 5500 5500 5500 5500 5500 5500 5500 5501 5501 5501 5502 5502 5502 5501 5501 5501 5502 5502 5502 5502 5503 5503 5503 5503 5503 5504 5504 5504 5504 5504 5504
5464 5464 5464 5465 5466 5467 5467 5467 5468 5469 5470 5470 5470 5471 5471 5472 5473 5473 5473 5474 5475 5475 5476 5476 5477 5477 5478 5479 5480 5480 5480 5480 5481 5481 5482 5482 5483 5484 5485 5485 5485 5486 5487 5487 5486 5487 5489 5490 5491 5491 5493 5494 5494 5494 5495 5495 5496 5496 5495 5494 5494 5495 5495 5495 5496 5496 5496 5496 5496 5496 5496 5496 5496 5497 5497 5497 5497 5497 5497 5497 5498 5498 5498 5498 5498 5498
5458 5458 5458 5459 5460 5461 5461 5461 5462 5463 5463 5464 5464 5465 5466 5466 5466 5467 5467 5468 5468 5469 5469 5470 5470 5471 5472 5472 5473 5473 5474 5474 5475 5475 5475 5475 5476 5477 5479 5479 5478 5479 5481 5481 5480 5481 5482 5484 5485 5485 5486 5487 5488 5488 5489 5490 5491 5491 5490 5489 5489 5490 5490 5490 5490 5490 5491 5491 5491 5491 5491 5491 5491 5491 5491 5491 5491 5491 5491 5491 5491 5492 5492 5493 5492 5492
5451 5452 5452 5453 5454 5455 5455 5455 5456 5456 5457 5458 5458 5459 5459 5460 5460 5461 5461 5461 5462 5463 5463 5464 5464 5465 5465 5466 5466 5467 5467 5468 5468 5468 5469 5469 5470 5471 5472 5472 5472 5472 5473 5474 5474 5475 5476 5477 5478 5478 5479 5480 5481 5482 5483 5484 5485 5485 5484 5484 5485 5485 5485 5484 5484 5485 5485 5486 5486 5485 5485 5485 5485 5486 5486 5486 5486 5486 5486 5486 5486 5486 5486 5487 5487 5486
5446 5446 5447 5447 5447 5448 5449 5449 5449 5450 5451 5451 5452 5452 5453 5453 5454 5454 5455 5455 5456 5456 5457 5457 5458 5459 5459 5459 5460 5460 5460 5461 5461 5462 5462 5463 5463 5464 5465 5466 5466 5466 5466 5467 5468 5469 5469 5470 5471 5471 5472 5474 5475 5476 5477 5478 5478 5478 5479 5480 5480 5480 5478 5478 5478 5479 5479 5480 5480 5480 5480 5480 5480 5480 5480 5480 5480 5480 5480 5480 5480 5480 5481 5481 5481 5481
5440 5441 5441 5441 5441 5442 5443 5443 5443 5443 5444 5445 5446 5446 5446 5447 5447 5448 5448 5449 5449 5450 5450 5451 5452 5452 5453 5453 5453 5453 5453 5453 5454 5455 5456 5456 5456 5457 5458 5458 5459 5459 5460 5461 5461 5462 5462 5463 5464 5465 5466 5467 5468 5469 5470 5471 5472 5472 5473 5473 5473 5473 5472 5473 5473 5473 5473 5473 5474 5475 5475 5475 5475 5475 5475 5475 5475 5475 5475 5475 5475 5475 5475 5475 5475 5475
5435 5435 5435 5435 5436 5436 5436 5436 5437 5437 5438 5438 5439 5439 5439 5440 5441 5441 5442 5442 5443 5443 5443 5444 5446 5446 5446 5446 5446 5446 5446 5447 5447 5448 5448 5449 5449 5450 5451 5451 5451 5452 5453 5454 5455 5455 5455 5456 5457 5458 5458 5459 5461 5462 5464 5465 5465 5466 5466 5466 5466 5466 5467 5468 5467 5466 5466 5467 5468 5468 5469 5470 5470 5470 5470 5470 5470 5469 5469 5469 5470 5470 5469 5469 5469 5469
5428 5428 5428 5429 5429 5430 5430 5431 5431 5431 5431 5432 5432 5432 5432 5432 5434 5435 5436 5436 5436 5436 5436 5437 5439 5440 5441 5440 5440 5439 5439 5440 5440 5441 5441 5441 5442 5442 5443 5444 5444 5445 5446 5447 5448 5447 5447 5449 5451 5451 5451 5452 5454 5456 5457 5457 5458 5459 5460 5459 5459 5460 5462 5462 5461 5460 5461 5462 5462 5462 5463 5464 5464 5464 5464 5465 5464 5464 5464 5464 5464 5464 5463 5463 5463 5463
5421 5421 5421 5422 5423 5423 5424 5424 5425 5425 5425 5426 5426 5426 5426 5426 5427 5428 5429 5429 5429 5429 5430 5431 5431 5433 5434 5434 5433 5432 5432 5432 5433 5433 5434 5434 5434 5435 5436 5436 5436 5437 5438 5440 5440 5440 5440 5442 5443 5444 5443 5445 5447 5449 5450 5450 5451 5452 5452 5451 5452 5453 5455 5454 5454 5455 5456 5456 5455 5455 5456 5458 5459 5459 5459 5460 5459 5459 5459 5459 5459 5458 5458 5458 5458 5458
5413 5414 5415 5416 5416 5417 5417 5418 5418 5417 5418 5419 5420 5419 5418 5419 5420 5421 5422 5422 5422 5422 5423 5423 5424 5426 5427 5426 5425 5425 5426 5426 5426 5426 5426 5426 5426 5427 5427 5428 5428 5429 5430 5431 5432 5432 5433 5434 5435 5435 5435 5438 5440 5441 5441 5442 5443 5444 5445 5444 5445 5446 5447 5447 5448 5449 5451 5449 5448 5449 5450 5451 5453 5454 5454 5454 5454 5454 5454 5454 5453 5453 5452 5452 5452 5452
5406 5407 5408 5408 5409 5410 5410 5410 5410 5410 5411 5412 5412 5411 5411 5411 5412 5413 5414 5414 5415 5415 5415 5416 5417 5418 5419 5417 5417 5417 5419 5419 5418 5418 5418 5418 5418 5419 5419 5420 5420 5421 5421 5422 5423 5424 5425 5426 5427 5427 5428 5431 5432 5433 5433 5434 5435 5436 5437 5436 5437 5439 5440 5440 5441 5442 5442 5442 5442 5443 5444 5445 5447 5448 5448 5448 5448 5448 5449 5448 5448 5447 5447 5446 5447 5447
5399 5400 5400 5401 5401 5402 5402 5402 5402 5403 5404 5404 5404 5403 5403 5404 5405 5406 5406 5406 5407 5407 5407 5408 5409 5410 5411 5409 5409 5410 5411 5411 5411 5410 5411 5411 5411 5411 5411 5411 5412 5412 5413 5414 5414 5415 5416 5417 5418 5419 5421 5423 5424 5424 5425 5426 5427 5428 5429 5429 5430 5432 5433 5433 5433 5433 5434 5436 5436 5436 5437 5439 5441 5441 5441 5442 5443 5443 5443 5443 5442 5442 5441 5441 5441 5441
5391 5392 5393 5393 5394 5394 5394 5394 5395 5395 5396 5396 5396 5395 5395 5396 5396 5397 5398 5398 5398 5399 5400 5400 5401 5401 5402 5401 5401 5402 5403 5403 5403 5403 5403 5403 5403 5402 5403 5403 5404 5404 5404 5405 5406 5406 5407 5408 5410 5411 5413 5415 5415 5416 5416 5417 5419 5420 5420 5421 5422 5424 5426 5425 5425 5425 5427 5428 5429 5429 5430 5432 5434 5434 5434 5435 5437 5438 5437 5437 5436 5436 5436 5436 5436 5436
5383 5384 5385 5385 5386 5386 5386 5386 5387 5387 5388 5388 5387 5387 5387 5387 5388 5389 5390 5390 5390 5391 5392 5392 5392 5393 5393 5393 5393 5394 5394 5395 5396 5395 5395 5395 5395 5395 5395 5395 5395 5396 5396 5397 5397 5398 5399 5400 5401 5403 5404 5406 5407 5408 5408 5409 5410 5411 5412 5413 5415 5416 5417 5417 5417 5418 5420 5421 5421 5421 5423 5425 5426 5426 5427 5429 5430 5431 5431 5431 5431 5430 5430 5429 5430 5430
5375 5376 5376 5377 5378 5378 5379 5379 5379 5380 5380 5380 5380 5380 5380 5380 5380 5381 5381 5382 5382 5383 5384 5384 5385 5385 5386 5386 5385 5385 5386 5387 5387 5387 5387 5386 5386 5387 5387 5387 5387 5388 5389 5389 5389 5390 5391 5393 5393 5394 5395 5396 5398 5399 5400 5400 5401 5403 5405 5406 5406 5407 5409 5409 5410 5410 5411 5412 5413 5414 5415 5417 5418 5419 5420 5422 5423 5423 5424 5425 5426 5425 5423 5423 5424 5425
5368 5369 5369 5370 5371 5371 5371 5372 5372 5373 5373 5373 5373 5373 5374 5374 5374 5374 5374 5375 5376 5376 5376 5377 5377 5378 5378 5378 5378 5378 5379 5379 5379 5379 5379 5378 5379 5379 5380 5379 5380 5380 5381 5381 5381 5382 5383 5385 5386 5386 5386 5387 5388 5390 5391 5392 5393 5395 5397 5397 5397 5398 5401 5402 5402 5402 5403 5405 5406 5406 5408 5409 5410 5411 5412 5414 5415 5416 5417 5419 5419 5419 5418 5418 5418 5419